Le nostre stazioni meteo in Italia

Pubblicità
Il mio iltempo24.it
Salsburgh, Gran Bretagna (99024): Temperatura & dewpoint: 22.05.2018 08:00:00 - 28.05.2018 08:00:00 (BST)Salsburgh, Gran Bretagna (99024): velocità del vento & gusts: 22.05.2018 08:00:00 - 28.05.2018 08:00:00 (BST)Salsburgh, Gran Bretagna (99024): direzione del vento: 22.05.2018 08:00:00 - 28.05.2018 08:00:00 (BST)Salsburgh, Gran Bretagna (99024): precipitazioni: 22.05.2018 08:00:00 - 28.05.2018 08:00:00 (BST)
Data & Tempo tt [°C] td [°C] ff [km/h] ff [kn] fx [km/h] fx [kn] dd rr [mm]
28.05.2018 08:00:00 10,3 10,3 22 12 - - ENE 0,0
28.05.2018 07:00:00 9,6 9,6 21 11 - - E 0,2
28.05.2018 06:00:00 9,0 9,0 22 12 - - ENE 0,0
28.05.2018 05:00:00 8,8 8,8 22 12 - - ENE 0,0
28.05.2018 04:00:00 9,0 9,0 21 11 - - ENE 0,0
28.05.2018 03:00:00 9,0 9,0 28 15 - - ENE 0,0
28.05.2018 02:00:00 8,6 8,6 26 14 - - ENE 0,0
28.05.2018 01:00:00 9,3 9,3 24 13 - - ENE 0,0
28.05.2018 00:00:00 9,2 9,2 31 17 - - E 0,0
27.05.2018 23:00:00 9,5 8,8 22 12 - - ENE 0,0
27.05.2018 22:00:00 10,4 9,3 26 14 - - E 0,0
27.05.2018 21:00:00 11,4 9,2 28 15 - - E 0,0
27.05.2018 20:00:00 13,4 9,7 29 16 - - E 0,0
27.05.2018 19:00:00 14,9 10,2 22 12 - - E 0,0
27.05.2018 18:00:00 15,3 10,1 31 17 - - ENE 0,0
27.05.2018 17:00:00 16,1 10,3 28 15 - - ENE 0,0
27.05.2018 16:00:00 15,4 10,1 31 17 - - ENE 0,0
27.05.2018 15:00:00 14,7 9,5 37 20 48 26 ENE 0,0
27.05.2018 14:00:00 14,7 9,9 35 19 48 26 ENE 0,0
27.05.2018 13:00:00 13,5 10,2 34 18 48 26 ENE 0,0
27.05.2018 12:00:00 11,1 9,3 35 19 52 28 ENE 0,0
27.05.2018 11:00:00 9,6 9,2 35 19 50 27 ENE 0,0
27.05.2018 10:00:00 8,7 8,7 34 18 54 29 ENE 0,0
27.05.2018 09:00:00 8,2 8,2 37 20 48 26 ENE 0,0
27.05.2018 08:00:00 7,5 7,5 37 20 52 28 ENE 0,0
27.05.2018 07:00:00 6,9 6,9 37 20 48 26 ENE 0,0
27.05.2018 06:00:00 6,8 6,8 29 16 52 28 ENE 0,0
27.05.2018 05:00:00 6,9 6,9 34 18 50 27 ENE 0,0
27.05.2018 04:00:00 7,1 7,1 31 17 54 29 ENE 0,0
27.05.2018 03:00:00 7,5 7,4 31 17 48 26 ENE 0,0
27.05.2018 02:00:00 8,0 7,3 29 16 46 25 ENE 0,0
27.05.2018 01:00:00 7,5 7,0 35 19 46 25 ENE 0,0
27.05.2018 00:00:00 7,5 7,1 31 17 - - ENE 0,0
26.05.2018 23:00:00 7,6 7,1 31 17 - - ENE 0,0
26.05.2018 22:00:00 8,2 6,9 26 14 - - ENE 0,0
26.05.2018 21:00:00 10,7 7,0 34 18 46 25 ENE 0,0
26.05.2018 20:00:00 12,1 7,7 31 17 - - ENE 0,0
26.05.2018 19:00:00 13,4 7,5 26 14 - - ENE 0,0
26.05.2018 18:00:00 14,3 8,2 28 15 - - ENE 0,0
26.05.2018 17:00:00 16,2 8,4 29 16 - - ENE 0,0
26.05.2018 16:00:00 15,5 9,0 34 18 48 26 ENE 0,0
26.05.2018 15:00:00 15,8 9,2 35 19 46 25 ENE 0,0
26.05.2018 14:00:00 14,1 9,7 29 16 46 25 ENE 0,0
26.05.2018 13:00:00 13,0 8,6 28 15 48 26 E 0,0
26.05.2018 12:00:00 15,6 9,7 37 20 52 28 ENE 0,0
26.05.2018 11:00:00 14,8 9,6 39 21 52 28 ENE 0,0
26.05.2018 10:00:00 13,4 9,6 34 18 52 28 ENE 0,0
26.05.2018 09:00:00 11,5 9,2 29 16 46 25 ENE 0,0
26.05.2018 08:00:00 10,0 8,6 26 14 - - ENE 0,0
26.05.2018 07:00:00 9,8 8,3 28 15 - - NE 0,0
26.05.2018 06:00:00 9,6 8,2 26 14 - - ENE 0,0
26.05.2018 05:00:00 9,6 8,2 28 15 - - ENE 0,0
26.05.2018 04:00:00 9,3 8,0 28 15 - - ENE 0,0
26.05.2018 03:00:00 9,1 7,9 26 14 - - ENE 0,0
26.05.2018 02:00:00 9,7 8,3 28 15 - - ENE 0,0
26.05.2018 01:00:00 9,8 8,0 28 15 - - ENE 0,0
26.05.2018 00:00:00 10,4 8,1 24 13 - - E 0,0
25.05.2018 23:00:00 11,2 8,0 28 15 - - E 0,0
25.05.2018 22:00:00 11,7 7,5 28 15 - - ENE 0,0
25.05.2018 21:00:00 13,0 7,2 24 13 - - E 0,0
25.05.2018 20:00:00 13,2 6,4 26 14 - - ENE 0,0
25.05.2018 19:00:00 15,3 5,6 28 15 - - ENE 0,0
25.05.2018 18:00:00 16,0 5,8 28 15 52 28 ENE 0,0
25.05.2018 17:00:00 16,9 6,4 34 18 50 27 E 0,0
25.05.2018 16:00:00 17,3 8,4 29 16 48 26 E 0,0
25.05.2018 15:00:00 17,6 7,9 34 18 52 28 ENE 0,0
25.05.2018 14:00:00 18,3 7,1 29 16 50 27 E 0,0
25.05.2018 13:00:00 17,2 5,0 28 15 - - ENE 0,0
25.05.2018 12:00:00 17,3 8,2 24 13 - - ENE 0,0
25.05.2018 11:00:00 15,8 8,6 22 12 - - ENE 0,0
25.05.2018 10:00:00 14,4 8,4 22 12 - - ENE 0,0
25.05.2018 09:00:00 12,7 8,2 21 11 - - ENE 0,0
25.05.2018 08:00:00 10,5 7,2 18 10 - - ENE 0,0
25.05.2018 07:00:00 8,8 6,5 21 11 - - ENE 0,0
25.05.2018 06:00:00 6,5 5,9 18 10 - - ENE 0,0
25.05.2018 05:00:00 5,8 5,4 22 12 - - ENE 0,0
25.05.2018 04:00:00 5,9 5,9 24 13 - - ENE 0,0
25.05.2018 03:00:00 6,2 6,2 21 11 - - ENE 0,0
25.05.2018 02:00:00 6,5 6,5 21 11 - - ENE 0,0
25.05.2018 01:00:00 6,7 6,7 24 13 - - ENE 0,0
25.05.2018 00:00:00 6,9 6,9 28 15 - - ENE 0,0
24.05.2018 23:00:00 7,4 7,4 26 14 - - ENE 0,0
24.05.2018 22:00:00 7,8 7,3 24 13 - - E 0,0
24.05.2018 21:00:00 10,3 8,1 21 11 - - E 0,0
24.05.2018 20:00:00 12,5 8,8 22 12 - - ENE 0,0
24.05.2018 19:00:00 14,4 9,3 24 13 - - ENE 0,0
24.05.2018 18:00:00 15,9 9,8 24 13 - - ENE 0,0
24.05.2018 17:00:00 16,9 10,4 21 11 - - ENE 0,0
24.05.2018 16:00:00 16,1 10,3 26 14 - - ENE 0,0
24.05.2018 15:00:00 16,6 10,0 26 14 - - ENE 0,0
24.05.2018 14:00:00 14,7 9,3 24 13 - - NE 0,0
24.05.2018 13:00:00 13,0 8,3 24 13 - - ENE 0,0
24.05.2018 12:00:00 11,3 8,0 24 13 - - ENE 0,0
24.05.2018 11:00:00 9,1 6,8 26 14 - - ENE 0,0
24.05.2018 10:00:00 8,1 7,3 22 12 - - ENE 0,0
24.05.2018 09:00:00 6,8 6,8 21 11 - - ENE 0,0
24.05.2018 08:00:00 6,5 6,5 22 12 - - ENE 0,0
24.05.2018 07:00:00 6,1 6,1 24 13 - - ENE 0,0
24.05.2018 06:00:00 6,2 6,2 21 11 - - ENE 0,0
24.05.2018 05:00:00 6,2 6,2 21 11 - - ENE 0,0
24.05.2018 04:00:00 6,4 6,4 22 12 - - ENE 0,0
24.05.2018 03:00:00 6,4 6,4 22 12 - - ENE 0,0
24.05.2018 02:00:00 6,5 6,5 24 13 - - ENE 0,0
24.05.2018 01:00:00 6,7 6,7 26 14 - - ENE 0,0
24.05.2018 00:00:00 6,8 6,8 26 14 - - E 0,0
23.05.2018 23:00:00 6,9 6,9 26 14 - - E 0,0
23.05.2018 22:00:00 7,1 6,8 26 14 - - E 0,0
23.05.2018 21:00:00 8,5 7,0 26 14 - - E 0,0
23.05.2018 20:00:00 10,3 7,5 24 13 - - E 0,0
23.05.2018 19:00:00 12,8 8,5 22 12 - - E 0,0
23.05.2018 18:00:00 14,0 8,6 22 12 - - ENE 0,0
23.05.2018 17:00:00 14,2 8,6 22 12 - - ENE 0,0
23.05.2018 16:00:00 14,1 8,8 24 13 - - ENE 0,0
23.05.2018 15:00:00 14,0 8,4 22 12 - - ENE 0,0
23.05.2018 14:00:00 12,7 7,1 18 10 - - ENE 0,0
23.05.2018 13:00:00 12,0 7,3 18 10 - - ENE 0,0
23.05.2018 12:00:00 10,6 7,0 18 10 - - ENE 0,0
23.05.2018 11:00:00 9,1 6,6 21 11 - - ENE 0,0
23.05.2018 10:00:00 8,2 6,4 16 9 - - ENE 0,0
23.05.2018 09:00:00 7,3 6,1 18 10 - - ENE 0,0
23.05.2018 08:00:00 6,8 6,1 15 8 - - ENE 0,0
23.05.2018 07:00:00 6,5 5,7 18 10 - - E 0,0
23.05.2018 06:00:00 6,5 5,8 18 10 - - E 0,0
23.05.2018 05:00:00 6,4 5,6 18 10 - - ENE 0,0
23.05.2018 04:00:00 6,6 5,4 16 9 - - ENE 0,0
23.05.2018 03:00:00 6,6 5,5 18 10 - - ENE 0,0
23.05.2018 02:00:00 7,0 5,5 18 10 - - E 0,0
23.05.2018 01:00:00 7,1 5,4 21 11 - - E 0,0
23.05.2018 00:00:00 7,4 5,6 22 12 - - ENE 0,0
22.05.2018 23:00:00 7,8 5,6 26 14 - - E 0,0
22.05.2018 22:00:00 8,3 6,0 26 14 - - E 0,0
22.05.2018 21:00:00 8,7 6,0 26 14 - - E 0,0
22.05.2018 20:00:00 9,4 6,2 28 15 - - E 0,0
22.05.2018 19:00:00 10,6 6,5 29 16 - - E 0,0
22.05.2018 18:00:00 11,7 6,5 24 13 - - E 0,0
22.05.2018 17:00:00 12,0 6,3 26 14 - - E 0,0
22.05.2018 16:00:00 12,2 6,3 28 15 - - E 0,0
22.05.2018 15:00:00 12,5 6,7 26 14 - - E 0,0
22.05.2018 14:00:00 12,2 7,0 26 14 - - E 0,0
22.05.2018 13:00:00 11,1 6,0 29 16 - - E 0,0
22.05.2018 12:00:00 10,4 5,8 34 18 46 25 E 0,0
22.05.2018 11:00:00 9,0 5,6 31 17 50 27 E 0,0
22.05.2018 10:00:00 9,5 5,8 34 18 52 28 E 0,0
22.05.2018 09:00:00 9,0 5,3 31 17 48 26 ENE 0,0
22.05.2018 08:00:00 7,9 5,6 29 16 - - ENE 0,0

tt = Temperatura
td = dewpoint
ff = velocità del vento
fx = gusts
dd = direzione del vento
rr = precipitazioni

Stazioni seguenti

WeatherPro
AMSI
MeteoEarth